[[[{"header":{"parameterUnit":"kt","parameterCategory":2,"dx":1,"dy":1,"la1":30.253999710083008,"la2":30.299108505249023,"lo1":-89.0895004272461,"lo2":-89.04439544677734,"nx":28,"ny":28,"refTime":"2022-10-26T21:00:00:Z","depth":0,"parameterNumber":1,"parameterNumberName":"U-component_of_WINDS"},"data":[-10.6263,-10.6438,-10.6392,-10.6572,-10.6561,-10.6676,-10.6703,-10.6733,-10.6745,-10.6879,-10.6949,-10.6921,-10.6915,-10.6988,-10.7062,-10.7048,-10.7084,-10.7182,-10.7149,-10.675,-10.6692,-10.6636,-10.6591,-10.719,-10.719,-10.7568,-10.7571,-10.7574,-10.5985,-10.5976,-10.6056,-10.6102,-10.6171,-10.605,-10.6077,-10.6144,-10.625,-10.6266,-10.6329,-10.6443,-10.6528,-10.6487,-10.656,-10.6644,-10.6591,-10.6668,-10.6661,-10.6663,-10.6235,-10.6187,-10.671,-10.671,-10.671,-10.6709,-10.6709,-10.6709,-10.5466,-10.5572,-10.557,-10.5656,-10.5666,-10.5698,-10.5791,-10.5751,-10.5829,-10.5897,-10.5824,-10.5944,-10.595,-10.6012,-10.6022,-10.6115,-10.6021,-10.609,-10.6108,-10.6127,-10.6157,-10.5625,-10.6125,-10.6123,-10.6122,-10.612,-10.6119,0,-10.507,-10.5024,-10.5094,-10.5154,-10.5212,-10.5253,-10.5281,-10.5338,-10.5219,-10.5288,-10.5385,-10.5432,-10.5528,-10.5614,-10.567,-10.5663,-10.5543,-10.5525,-10.5572,-10.5611,-10.564,-10.563,-10.4937,-10.551,-10.5504,-10.5501,-10.5498,-10.5495,-10.4545,-10.4672,-10.4644,-10.4702,-10.4703,-10.4797,-10.4842,-10.4726,-10.478,-10.4799,-10.4898,-10.4981,-10.5042,-10.5205,-10.5156,-10.5227,-10.5169,-10.5394,-10.5178,-10.5212,-10.5175,-10.517,-10.5184,-10.5438,-10.5445,-10.5451,-10.5456,0,-10.4255,-10.4171,-10.4351,-10.4309,-10.4302,-10.4443,-10.4407,-10.4508,-10.4455,-10.4586,-10.461,-10.4528,-10.4625,-10.4537,-10.4628,-10.458,-10.4818,-10.4758,-10.4816,-10.48,-10.4995,-10.4979,-10.5634,-10.5715,-10.5091,-10.5097,-10.5102,0,-10.3774,-10.3944,-10.3809,-10.3918,-10.4105,-10.398,-10.417,-10.4141,-10.4139,-10.4241,-10.4087,-10.4187,-10.4056,-10.4145,-10.4073,-10.425,-10.4266,-10.424,-10.4219,-10.4255,-10.4259,-10.4282,-10.4254,-10.4162,-10.4159,-10.4156,-10.4154,0,-10.3328,-10.3453,-10.3628,-10.3643,-10.3612,-10.3699,-10.369,-10.3684,-10.3729,-10.3773,-10.3801,-10.3862,-10.3896,-10.3947,-10.3853,-10.3711,-10.4066,-10.3851,-10.404,-10.4043,-10.4122,-10.4119,-10.4721,-10.415,-10.4149,-10.4148,-10.4146,0,-10.2925,-10.2968,-10.3234,-10.3205,-10.3242,-10.3358,-10.3406,-10.3484,-10.3489,-10.3449,-10.3482,-10.3367,-10.351,-10.3305,-10.3502,-10.3344,-10.3387,-10.3374,-10.3385,-10.3393,-10.3165,-10.3519,-10.41,-10.4158,-10.3403,-10.3396,-10.3391,0,-10.2441,-10.2683,-10.2575,-10.283,-10.2929,-10.2747,-10.2873,-10.2879,-10.2836,-10.2915,-10.2867,-10.2958,-10.2785,-10.28,-10.291,-10.2864,-10.3071,-10.2833,-10.2956,-10.2962,-10.2962,-10.3495,-10.3603,-10.3982,-10.331,-10.3318,-10.3324,0,-10.2053,-10.2008,-10.2061,-10.2071,-10.2056,-10.2136,-10.2281,-10.2341,-10.24,-10.2422,-10.2542,-10.2665,-10.2541,-10.2567,-10.2478,-10.2597,-10.2928,-10.2446,-10.2444,-10.2539,-10.326,-10.3363,-10.3428,-10.2842,-10.2852,-10.286,-10.326,0,-10.1469,-10.1576,-10.1713,-10.1738,-10.1784,-10.1936,-10.1833,-10.1897,-10.1805,-10.1753,-10.1926,-10.1904,-10.1965,-10.2011,-10.1922,-10.2221,-10.2156,-10.2021,-10.1812,-10.2162,-10.2292,-10.2345,-10.1628,-10.1622,-10.1616,-10.1611,0,0,-10.1028,-10.1176,-10.1048,-10.118,-10.1211,-10.1015,-10.1187,-10.1195,-10.1215,-10.1243,-10.1125,-10.1297,-10.1284,-10.1504,-10.1604,-10.1628,-10.1674,-10.1553,-10.1996,-10.2039,-10.2079,-10.222,-10.2276,-10.1601,-10.1599,-10.1597,-10.1595,0,-10.0792,-10.0778,-10.0946,-10.0948,-10.0944,-10.0878,-10.092,-10.0881,-10.0855,-10.1019,-10.0855,-10.0946,-10.1083,-10.1092,-10.1115,-10.1525,-10.1396,-10.1551,-10.1807,-10.1942,-10.1993,-10.2038,-10.2187,-10.2242,-10.1581,-10.1582,-10.1583,0,-10.0392,-10.0362,-10.0431,-10.0488,-10.0483,-10.0588,-10.0344,-10.0463,-10.054,-10.0317,-10.0483,-10.0457,-10.0458,-10.0677,-10.0771,-10.0667,-10.1151,-10.0977,-10.101,-10.1018,-10.1145,-10.1206,-10.1261,-10.0542,-10.0539,-10.0536,0,0,-10.0203,-10.0298,-10.0226,-10.0429,-10.0437,-10.034,-10.0383,-10.0294,-10.0297,-10.0299,-10.0261,-10.0271,-10.0349,-10.0404,-10.0472,-10.0726,-10.0717,-10.0853,-10.0902,-10.0943,-10.0974,-10.1111,-10.1171,-10.0524,-10.0524,-10.0523,0,0,-10.0111,-10.0035,-9.9939,-10.016,-10.0169,-10.0111,-10.024,-10.0122,-10.0171,-10.0142,-9.9998,-9.9994,-10.0195,-10.0175,-10.0026,-10.0396,-10.0192,-10.0225,-10.0401,-10.0462,-10.051,-10.0511,-9.9772,0,0,0,0,0,-9.9814,-10.0043,-9.9958,-9.9979,-10.0048,-10.0159,-10.0167,-10.0051,-9.991,-10.0016,-9.9965,-9.9822,-10.0066,-9.993,-9.9954,-10.0122,-10.0368,-10.0396,-10.0422,-10.0708,-10.0772,-10.0826,0,0,0,0,0,0,-9.9821,-9.9847,-9.9951,-9.9905,-9.9919,-10.0149,-9.9885,-9.9859,-9.9896,-9.9866,-9.9837,-9.9821,-9.9726,-9.991,-9.9933,-10.0095,-9.9764,-10.0379,-10.0402,-10.0424,-10.073,-10.0782,-10.0828,0,0,0,0,0,-9.9826,-9.9846,-9.9987,-9.9901,-9.9914,-9.9815,-9.9875,-9.9852,-9.9878,-9.9798,-9.9778,-9.9787,-9.9734,-9.9746,-9.9923,-10.0087,-9.9747,-9.9756,-10.0394,-10.0413,-10.0429,-10.0756,0,0,0,0,0,0,-9.983,-9.9827,-9.9986,-9.9986,-9.9803,-9.98,-9.9795,-9.9846,-9.9804,-9.9787,-9.974,-9.9717,-9.9742,-9.975,-9.976,-10.0091,-9.9733,-9.9742,-9.9748,-10.0408,-10.0423,-10.0436,0,0,0,0,0,0,-9.9815,-9.9828,-9.9986,-9.987,-9.9854,-9.9787,-9.9783,-9.9915,-9.9807,-9.9748,-9.9728,-9.9731,-9.9727,-9.9754,-9.9761,-9.9973,-9.9722,-9.9731,-9.9737,-9.9741,-10.042,-10.0431,0,0,0,0,0,0,-9.9818,-9.983,-9.9869,-9.9858,-9.9844,-9.983,-9.9902,-9.9979,-9.9706,-9.9753,-9.9678,-9.9665,-9.9736,-9.974,-9.9763,-9.9973,-9.9973,-9.9722,-9.9728,-9.9733,-9.9736,0,0,0,0,0,0,0,-9.9821,-9.9772,-9.9989,-9.9848,-9.9835,-9.9982,-9.9982,-9.9982,-9.9703,-9.9692,-9.9681,-9.9671,-9.967,-9.968,-9.969,-9.9973,0,0,-9.9721,-9.9726,0,0,0,0,0,0,0,0,-9.9765,-9.9771,-9.9989,-9.9989,-9.9989,-9.9982,-9.9982,-9.9982,-9.9701,-9.9692,-9.9683,-9.9675,-9.9673,-9.9681,-9.9689,0,0,0,0,0,0,0,0,0,0,0,0,0,0,0,-9.9989,-9.9989,0,-9.9982,-9.9982,-9.9982,-9.97,-9.9692,-9.9685,-9.9678,-9.9675,-9.9682,-9.9689,0,0,0,0,0,0,0,0,0,0,0,0,0,0,0,0,0,0,0,0,0,0,0,0,0,0,0,0,0,0,0,0,0,0,0,0,0,0,0,0,0,0,0,0,0,0,0,0,0,0,0,0,0,0,0,0,0,0,0,0,0,0,0,0,0,0,0,0,0]}],[{"header":{"parameterUnit":"kt","parameterCategory":2,"dx":1,"dy":1,"la1":30.253999710083008,"la2":30.299108505249023,"lo1":-89.0895004272461,"lo2":-89.04439544677734,"nx":28,"ny":28,"refTime":"2022-10-26T21:00:00:Z","depth":0,"parameterNumber":2,"parameterNumberName":"V-component_of_WINDS"},"data":[0.8027,0.7939,0.7964,0.7874,0.788,0.7821,0.7807,0.7791,0.7784,0.7714,0.7677,0.7689,0.7687,0.7646,0.7604,0.761,0.7588,0.7541,0.7554,0.7749,0.7777,0.7804,0.7826,0.7538,0.7537,0.7346,0.7344,0.7343,0.8171,0.8177,0.8138,0.8114,0.8079,0.8141,0.8126,0.8091,0.8035,0.8025,0.799,0.7929,0.7882,0.7896,0.7853,0.7808,0.7831,0.7794,0.7794,0.7792,0.8004,0.8027,0.7777,0.7777,0.7777,0.7777,0.7777,0.7777,0.8438,0.8385,0.8385,0.8342,0.8337,0.832,0.8271,0.8289,0.8248,0.8209,0.8244,0.8179,0.817,0.8128,0.8118,0.8066,0.8109,0.8074,0.8064,0.8053,0.8037,0.8304,0.8061,0.8061,0.8062,0.8063,0.8063,0,0.864,0.8664,0.8627,0.8596,0.8566,0.8543,0.8526,0.8497,0.8551,0.8514,0.8461,0.8433,0.8378,0.8327,0.8291,0.8288,0.8338,0.8348,0.8323,0.8301,0.8288,0.8289,0.8628,0.8352,0.8355,0.8357,0.8358,0.8359,0.8906,0.8842,0.8853,0.8824,0.882,0.8771,0.8746,0.8799,0.8769,0.8754,0.8701,0.8654,0.8617,0.8525,0.8539,0.8496,0.8518,0.841,0.8511,0.8497,0.851,0.851,0.8502,0.8387,0.8383,0.838,0.8378,0,0.9053,0.9092,0.8999,0.9016,0.9018,0.8946,0.8958,0.8905,0.8927,0.8856,0.8842,0.8873,0.8818,0.8851,0.8793,0.8811,0.8686,0.8714,0.869,0.8695,0.8598,0.8604,0.8286,0.8245,0.8551,0.8549,0.8546,0,0.9292,0.9205,0.9268,0.9211,0.9116,0.9171,0.9074,0.9083,0.9078,0.9022,0.909,0.9036,0.9087,0.9036,0.9063,0.8968,0.8958,0.8964,0.897,0.8953,0.8952,0.893,0.8941,0.8995,0.8996,0.8998,0.8999,0,0.9513,0.9445,0.9355,0.9345,0.9351,0.9307,0.9306,0.9301,0.9274,0.9245,0.9227,0.9188,0.9165,0.9132,0.9165,0.9232,0.9052,0.915,0.9056,0.9055,0.9008,0.9009,0.8727,0.9001,0.9001,0.9002,0.9002,0,0.9709,0.9684,0.9548,0.9555,0.9534,0.9474,0.944,0.9397,0.9385,0.9399,0.9376,0.9422,0.9345,0.944,0.9333,0.941,0.9383,0.9382,0.9376,0.9364,0.9467,0.9296,0.903,0.9,0.9363,0.9366,0.9369,0,0.995,0.9824,0.987,0.9739,0.9685,0.9765,0.9699,0.9687,0.97,0.9654,0.9668,0.9612,0.9691,0.9677,0.9621,0.9629,0.953,0.9645,0.9567,0.9564,0.9563,0.9321,0.9269,0.9087,0.9408,0.9404,0.9401,0,1.0139,1.0149,1.0122,1.0112,1.0107,1.0061,0.9986,0.9946,0.9912,0.9891,0.9825,0.9751,0.9806,0.9782,0.9814,0.9753,0.9599,0.9818,0.9818,0.9773,0.9432,0.9384,0.9353,0.9634,0.9629,0.9625,0.9432,0,1.0419,1.0361,1.0293,1.0267,1.0238,1.0158,1.0195,1.016,1.0196,1.021,1.0116,1.0111,1.0064,1.004,1.0072,0.9924,0.9952,1.001,1.0097,0.994,0.9877,0.9851,1.019,1.0193,1.0195,1.0197,0,0,1.0635,1.0553,1.0605,1.0534,1.0512,1.0594,1.0505,1.0492,1.0463,1.0444,1.0496,1.0387,1.0378,1.0258,1.0213,1.0195,1.0169,1.0222,1.0016,0.9996,0.9977,0.9909,0.9882,1.0201,1.0202,1.0203,1.0203,0,1.0744,1.0743,1.0656,1.0647,1.0634,1.0655,1.0635,1.0634,1.0638,1.0548,1.0611,1.0559,1.0469,1.0451,1.043,1.0241,1.0286,1.0225,1.011,1.0039,1.0016,0.9995,0.9923,0.9897,1.0209,1.0209,1.0209,0,1.0933,1.0936,1.0899,1.0855,1.0846,1.0787,1.0892,1.0826,1.0781,1.0867,1.0774,1.0774,1.0753,1.0637,1.0586,1.063,1.0391,1.0473,1.0459,1.0451,1.0384,1.0356,1.0331,1.0659,1.0661,1.0662,0,0,1.102,1.0968,1.0984,1.0881,1.0871,1.09,1.0872,1.0903,1.0886,1.0878,1.0879,1.0857,1.0805,1.0769,1.0722,1.0591,1.0587,1.0527,1.0506,1.0488,1.0471,1.0399,1.0372,1.0667,1.0667,1.0668,0,0,1.106,1.1077,1.1117,1.1002,1.0986,1.0991,1.0925,1.0972,1.0934,1.0946,1.0991,1.0987,1.088,1.0876,1.0946,1.0752,1.084,1.0824,1.0758,1.0731,1.071,1.071,1.1045,0,0,0,0,0,1.1189,1.1076,1.1112,1.1098,1.104,1.0973,1.0965,1.1002,1.1065,1.1012,1.102,1.1072,1.0923,1.0986,1.0969,1.0888,1.0738,1.0725,1.0713,1.0597,1.0569,1.0546,0,0,0,0,0,0,1.1184,1.1167,1.1115,1.1116,1.1103,1.0977,1.109,1.1097,1.1071,1.1083,1.107,1.1072,1.11,1.0997,1.0981,1.0903,1.1051,1.0733,1.0722,1.0713,1.0588,1.0565,1.0545,0,0,0,0,0,1.118,1.1167,1.1064,1.1118,1.1106,1.113,1.1095,1.1101,1.1081,1.1092,1.1097,1.1112,1.1097,1.1086,1.0988,1.091,1.1062,1.1056,1.0726,1.0717,1.071,1.0576,0,0,0,0,0,0,1.1177,1.1171,1.1062,1.106,1.1163,1.1138,1.1135,1.1105,1.1093,1.1097,1.1138,1.1147,1.1093,1.1085,1.1076,1.091,1.1071,1.1065,1.1061,1.0719,1.0713,1.0707,0,0,0,0,0,0,1.1178,1.1168,1.1061,1.1116,1.1121,1.1144,1.1142,1.1064,1.1092,1.1139,1.1147,1.1142,1.1104,1.1084,1.1078,1.0953,1.1078,1.1072,1.1068,1.1065,1.0714,1.0709,0,0,0,0,0,0,1.1175,1.1166,1.1117,1.112,1.1125,1.1103,1.1075,1.1012,1.1144,1.1138,1.1157,1.1162,1.1101,1.1096,1.1078,1.0956,1.0954,1.1078,1.1074,1.1071,1.1069,0,0,0,0,0,0,0,1.1172,1.1221,1.1075,1.1124,1.1128,1.104,1.104,1.1039,1.1145,1.115,1.1155,1.116,1.1111,1.1105,1.1098,1.0958,0,0,1.1078,1.1075,0,0,0,0,0,0,0,0,1.1225,1.1222,1.1075,1.1075,1.1074,1.104,1.104,1.1039,1.1146,1.115,1.1154,1.1158,1.1109,1.1104,1.1099,0,0,0,0,0,0,0,0,0,0,0,0,0,0,0,1.1075,1.1075,0,1.104,1.104,1.1039,1.1147,1.115,1.1153,1.1156,1.1108,1.1104,1.1099,0,0,0,0,0,0,0,0,0,0,0,0,0,0,0,0,0,0,0,0,0,0,0,0,0,0,0,0,0,0,0,0,0,0,0,0,0,0,0,0,0,0,0,0,0,0,0,0,0,0,0,0,0,0,0,0,0,0,0,0,0,0,0,0,0,0,0,0,0]}]]]